Temp
15 15 14 14 14 13 13 13 13 13 13 13 13 13 13 12 12 13 12 12 13 13 13 13 13 14 14 14 14 14 14 14 14 14 14 14 14 14 14 14 14 14
14 14 14 14 13 13 13 13 13 13 13 13 13 13 13 13 12 12 13 13 13 13 13 13 13 13 13 14 14 14 14 14 14 14 14 14 14 14 14 14 14 14
13 13 13 13 13 13 13 13 13 12 13 13 13 13 13 13 13 13 13 13 13 13 13 14 14 13 13 14 14 14 14 14 14 14 14 14 14 14 14 14 14 14
13 13 13 13 13 13 13 13 13 12 12 13 13 13 13 13 13 13 13 13 13 13 14 14 14 13 13 13 13 14 14 14 13 14 14 14 14 14 13 13 14 14
13 13 13 13 13 13 13 13 12 12 12 13 13 13 13 13 13 13 14 13 13 14 14 14 14 14 14 14 13 13 14 14 13 13 13 14 14 13 13 13 14 14
13 13 13 12 12 12 12 12 12 12 12 12 13 13 13 13 13 13 13 13 13 14 14 14 14 14 14 14 13 13 14 14 13 13 13 13 13 13 14 14 14 14
12 12 12 12 12 12 12 11 11 12 12 12 12 13 12 12 12 12 12 13 13 13 13 13 13 14 13 13 13 13 14 14 13 13 13 13 13 13 14 14 13 13
12 11 11 11 11 11 11 11 11 12 12 12 12 12 11 11 11 11 12 12 13 12 13 13 13 13 13 13 13 13 13 13 13 13 13 13 13 13 13 13 13 13
11 11 11 10 10 11 10 11 11 11 12 12 11 11 11 10 10 10 11 12 12 12 12 12 13 13 12 12 13 13 13 13 13 13 13 12 12 12 12 12 12 12
10 10 10 10 10 10 10 10 11 11 11 10 10 10 10 10 10 10 10 11 11 10 11 11 12 12 12 12 12 12 13 13 12 12 12 11 11 11 11 11 11 11
9 9 10 9 9 9 9 10 10 10 10 9 9 10 10 10 10 10 10 10 10 10 10 11 11 11 11 11 11 11 12 12 12 11 10 10 10 10 10 11 11 11
9 9 9 9 9 9 9 9 9 9 9 9 9 9 9 9 9 9 9 9 10 10 10 10 11 11 10 10 10 11 11 11 11 10 9 9 10 10 10 10 10 10
8 8 8 8 9 9 9 9 9 9 9 9 8 9 8 9 9 9 9 9 9 10 10 10 11 11 11 10 10 10 10 10 9 9 9 9 9 10 10 9 9 10
7 8 8 8 8 9 9 9 9 9 8 8 8 8 9 9 9 9 9 9 9 10 10 10 11 11 11 10 10 10 10 9 8 8 9 9 9 9 9 9 9 9
7 8 8 8 8 9 9 9 9 8 8 8 8 8 9 9 9 9 10 10 10 10 10 11 11 10 10 10 9 9 9 8 8 8 8 8 8 8 9 9 9 9
7 8 8 8 9 9 9 9 8 8 8 8 8 9 9 9 9 9 9 9 9 9 10 10 9 8 9 9 9 9 8 8 8 9 9 8 8 8 8 8 9 9
7 8 8 8 8 8 8 8 8 8 8 8 8 8 8 8 8 8 8 8 8 8 8 8 7 7 8 9 9 8 8 7 7 8 8 8 8 8 8 9 9 9
7 7 7 7 8 8 8 8 8 8 8 8 8 8 8 8 8 8 8 7 7 7 7 7 6 7 7 8 8 8 8 7 7 7 7 7 7 7 7 8 8 8
6 7 7 7 7 7 7 8 8 8 8 7 7 7 8 8 8 8 8 7 7 7 7 7 6 7 7 8 8 8 8 7 7 6 6 6 6 6 6 6 7 8
6 6 6 6 6 7 7 8 8 7 7 7 7 7 8 7 7 7 7 7 7 7 7 7 6 7 7 8 7 7 7 7 7 6 6 5 6 6 6 6 6 6
6 6 6 6 6 7 7 7 7 7 7 7 7 7 7 6 6 7 7 7 7 7 7 7 6 7 7 7 7 7 7 7 7 6 6 5 5 6 6 6 6 6
6 6 6 6 6 7 7 7 7 7 6 6 7 7 7 6 6 6 6 6 6 6 6 6 6 7 7 7 7 7 6 6 6 6 6 5 5 5 5 6 6 6
6 6 6 6 7 7 7 7 7 6 6 6 7 7 6 6 6 6 6 6 6 6 6 6 6 6 7 7 7 7 7 6 6 6 6 5 5 5 5 5 6 6
7 7 7 7 7 7 6 6 6 6 6 6 7 6 6 6 6 6 6 6 6 6 6 6 6 6 6 6 7 7 6 6 6 6 6 5 5 5 5 6 6 6
7 7 7 7 7 6 6 6 6 6 6 6 7 6 6 6 6 6 6 6 6 6 6 6 6 6 6 6 6 6 6 6 6 6 5 5 5 5 5 5 5 5
6 7 7 7 6 6 6 6 6 6 6 6 6 6 6 6 6 6 6 6 6 6 6 6 5 5 6 6 6 6 6 6 6 5 5 5 5 5 5 5 5 5
Height
820 820 821 821 821 821 822 822 822 822 823 822 822 821 820 819 817 815 814 812 810 808 806 805 803 800 799 797 795 793 792 790 789 787 786 785 784 783 782 780 779 779
820 821 821 821 822 822 823 823 823 824 824 823 822 821 820 819 818 816 814 812 810 808 806 804 802 800 798 797 795 793 791 789 788 786 785 784 783 781 780 778 777 776
821 821 822 822 823 824 824 824 824 824 824 823 822 822 821 819 818 816 814 812 810 808 805 803 801 800 798 796 794 793 791 789 787 786 785 783 782 780 779 777 775 774
822 823 823 824 824 825 825 825 825 825 824 823 822 822 820 819 818 816 814 812 809 807 805 803 801 799 798 796 794 793 791 789 788 786 784 783 782 780 778 776 775 773
823 824 824 825 826 826 827 826 826 825 824 823 822 822 821 819 818 816 814 812 809 807 805 802 801 799 798 796 794 793 791 789 788 786 784 783 781 780 778 776 774 773
825 826 826 827 827 828 828 827 826 825 824 823 822 822 821 819 818 815 813 811 809 807 804 802 801 799 798 796 794 793 791 790 788 786 784 783 782 780 779 777 774 773
827 828 828 828 828 828 828 827 826 825 824 824 823 822 821 819 818 816 813 811 809 807 805 803 801 800 798 797 795 793 792 790 788 786 785 784 782 781 779 777 775 773
828 829 829 830 829 829 828 827 826 825 824 824 823 822 821 819 818 816 814 812 810 808 806 804 802 800 799 798 796 794 793 791 789 787 786 784 783 782 780 778 776 774
830 831 830 830 830 829 828 827 826 826 825 824 824 823 822 820 819 817 815 813 811 809 807 805 803 801 800 799 797 796 794 792 791 789 787 786 784 783 781 780 778 776
831 832 832 831 830 829 828 828 827 826 825 825 825 824 823 821 819 818 816 814 812 810 808 806 804 802 801 800 799 797 795 794 792 791 789 788 786 785 783 781 779 778
833 833 832 832 831 830 829 828 827 827 827 826 826 825 824 822 820 819 817 815 813 811 810 808 806 805 803 801 800 798 797 795 794 792 791 790 788 786 785 783 781 779
834 834 833 832 831 830 829 829 828 828 828 828 828 826 825 823 821 820 818 817 815 813 812 810 809 807 805 804 802 800 799 797 795 794 793 792 790 788 786 784 782 781
834 834 833 832 831 830 830 830 830 830 829 829 829 827 826 824 822 821 820 818 817 815 814 813 811 809 808 806 805 803 801 799 798 797 795 794 792 790 788 786 784 783
834 834 833 832 832 831 831 831 831 831 830 830 829 828 826 825 824 823 821 820 819 817 816 814 812 810 809 808 807 806 804 802 801 800 798 796 795 793 790 788 787 785
834 834 833 833 833 832 832 832 832 832 831 830 829 828 827 827 825 824 823 821 820 819 817 816 814 813 812 811 810 808 806 805 804 802 800 799 797 796 794 791 789 787
835 834 834 834 833 833 833 833 833 833 832 831 830 829 829 828 827 825 824 823 822 820 819 818 817 816 816 815 812 811 809 808 806 805 803 801 800 798 797 795 793 791
836 835 835 835 834 834 834 834 834 833 833 832 831 831 831 830 828 827 826 825 824 823 822 821 821 820 819 818 815 813 812 810 809 807 805 804 802 801 800 798 795 794
836 836 836 836 835 835 835 835 835 834 834 834 833 833 833 832 831 830 829 828 827 826 825 824 825 824 822 820 818 816 815 813 812 810 809 807 805 804 802 800 798 796
837 837 837 837 837 837 836 837 836 836 836 836 836 836 835 834 833 833 832 831 830 829 828 828 828 827 826 824 822 820 818 816 815 813 812 811 809 807 806 804 801 799
838 838 838 838 838 838 838 838 838 838 838 839 839 838 837 836 836 835 835 834 833 832 832 831 831 830 829 827 825 824 822 820 818 817 816 814 813 811 809 807 805 803
839 839 839 840 840 840 839 840 840 840 841 841 841 840 840 839 839 838 838 837 836 836 834 834 834 833 832 830 828 827 825 823 821 820 819 817 816 815 813 811 810 807
841 841 841 841 841 841 841 842 842 843 843 843 843 843 842 842 841 841 841 840 839 839 837 837 837 837 835 833 831 830 828 826 824 823 822 820 819 818 817 815 813 811
843 843 843 843 843 843 843 844 845 845 846 846 845 845 845 845 844 844 843 843 842 841 840 840 840 840 839 837 835 833 831 829 828 826 825 824 823 822 821 819 817 815
845 844 844 844 844 845 846 847 847 847 848 848 848 847 847 847 847 846 846 845 845 844 844 843 843 843 842 840 838 836 834 832 831 829 828 827 826 825 824 823 821 819
846 846 846 846 846 847 848 849 849 850 850 850 850 850 850 850 850 849 848 848 848 848 847 846 846 845 845 843 841 839 837 836 834 832 831 830 829 828 827 826 824 823
848 847 848 848 849 850 851 851 852 852 852 853 853 853 852 852 852 851 851 851 851 850 850 849 848 848 847 846 844 842 841 839 837 835 834 834 833 831 830 828 827 826
Wind_Speed
7 6 6 6 7 7 8 10 12 12 13 13 14 16 17 18 19 19 19 18 17 17 18 18 18 18 18 18 18 18 17 17 17 17 17 18 18 18 18 20 21 22
5 5 6 7 7 7 9 10 11 11 11 11 12 15 17 18 18 17 17 17 17 17 17 18 18 18 18 17 17 18 17 16 16 15 15 14 15 14 15 17 20 21
5 5 5 5 5 6 8 8 10 11 10 10 12 14 16 17 16 15 15 16 17 18 18 18 18 18 18 17 17 19 19 16 15 15 15 14 14 14 15 15 16 18
4 4 5 6 6 6 6 8 10 10 9 10 12 13 15 16 15 14 15 15 17 17 18 18 17 17 18 17 18 20 21 19 17 15 15 15 15 16 17 17 16 16
5 5 5 6 6 6 6 8 9 8 8 10 12 13 14 14 14 14 15 16 16 16 17 17 16 17 18 18 18 19 20 21 21 18 16 15 16 16 18 19 19 18
5 4 4 4 4 3 6 6 6 6 8 11 12 13 13 12 13 13 14 15 16 16 17 17 17 17 19 20 20 20 20 21 23 22 19 18 18 18 19 19 19 19
2 3 3 3 2 4 4 4 4 7 9 11 12 11 12 13 13 14 14 15 17 18 19 19 19 19 20 21 22 21 21 21 23 23 22 22 21 20 22 21 19 19
3 2 2 2 2 3 3 4 7 9 9 10 10 10 12 14 15 16 16 17 19 20 21 20 20 19 19 21 22 22 22 22 22 23 23 23 22 22 23 23 21 20
4 3 4 4 5 6 7 9 10 10 10 10 10 10 11 14 16 18 18 19 21 22 22 21 20 19 19 21 22 22 22 22 21 22 23 23 23 23 23 23 22 22
7 7 8 9 10 10 11 11 11 11 11 11 12 12 12 14 18 19 19 22 23 25 25 23 21 20 20 22 22 21 20 20 20 21 21 22 22 23 24 24 23 24
9 10 10 11 12 12 12 12 11 11 13 14 14 15 15 17 20 21 23 25 26 28 28 26 24 22 22 22 21 20 19 18 19 20 21 23 23 23 24 24 24 25
12 12 12 13 13 13 12 12 12 13 15 16 16 17 19 20 22 24 26 27 28 29 29 29 28 26 25 25 24 23 23 23 23 24 25 26 26 25 24 24 24 25
14 13 14 14 14 14 13 13 14 15 16 17 18 19 20 21 24 26 27 28 29 29 30 30 30 29 29 29 29 28 29 30 30 30 30 31 30 29 26 25 24 25
15 14 14 14 14 14 14 15 16 16 17 18 19 20 21 22 25 26 26 28 29 29 29 29 30 31 30 30 30 30 31 32 32 32 32 33 34 33 31 30 29 27
14 15 15 15 15 15 16 17 18 18 19 20 21 22 22 23 25 26 27 28 28 29 29 29 30 31 30 29 30 31 32 33 33 33 34 33 33 34 35 35 35 33
15 16 16 16 17 18 19 20 20 21 22 23 23 24 24 25 26 27 28 28 29 29 29 29 30 29 28 28 29 30 31 32 33 36 36 35 35 34 34 35 37 36
16 17 18 19 20 21 21 22 22 23 24 25 25 26 26 26 27 28 29 29 29 29 29 29 29 27 27 28 29 30 31 31 34 36 37 37 37 36 35 36 37 37
18 19 20 21 22 22 23 23 23 24 25 26 26 27 27 27 28 29 29 29 29 30 30 29 28 26 26 28 29 30 31 32 35 37 38 39 38 38 38 37 38 37
20 21 22 22 22 23 23 23 24 25 26 27 27 27 28 29 30 31 31 31 31 31 31 29 28 27 27 28 30 31 33 34 36 37 39 40 40 39 39 38 39 39
20 22 23 23 23 24 24 25 26 27 27 27 28 29 30 31 32 33 33 34 33 33 32 31 29 28 27 29 31 32 33 35 37 37 38 39 40 40 40 39 39 40
20 22 23 23 24 25 26 27 27 28 28 28 29 30 31 32 33 34 34 35 34 34 35 33 31 28 28 29 31 32 33 35 36 37 38 39 39 40 41 40 39 39
20 22 23 24 25 26 27 28 28 28 28 29 30 32 32 32 33 34 34 34 35 35 36 35 33 31 30 30 31 32 34 35 36 37 38 38 39 39 40 41 40 40
19 21 23 24 25 26 27 27 27 28 28 29 31 32 33 33 34 34 34 34 35 35 35 35 34 33 32 32 32 33 34 35 36 36 37 37 37 37 38 40 40 41
19 21 23 24 25 26 27 27 27 28 28 29 31 32 33 33 33 33 33 33 33 33 33 33 32 32 31 31 32 32 34 35 35 36 36 36 36 36 37 38 38 38
20 22 24 25 26 27 27 27 27 28 28 29 30 31 31 31 31 32 32 32 32 31 31 32 31 30 30 31 31 31 32 33 34 35 36 35 35 35 36 36 36 37
21 23 24 26 26 26 27 27 27 27 28 28 29 29 30 30 31 32 32 31 31 31 31 31 30 30 29 30 31 31 31 31 33 34 34 33 33 34 35 35 35 35
Wind_Direction
10 17 21 26 25 18 17 17 15 13 13 16 17 12 5 1 360 359 357 357 358 360 360 357 354 352 350 349 349 348 345 342 340 336 328 319 312 308 303 300 292 284
41 43 41 38 34 33 33 33 29 20 15 20 18 10 6 4 1 1 359 1 7 5 1 357 355 354 350 347 351 354 351 348 347 347 344 333 323 317 311 305 299 291
44 27 31 37 37 40 31 25 29 18 6 16 18 7 6 5 1 2 3 6 8 7 5 3 0 359 355 353 360 2 360 356 351 349 350 351 347 338 331 321 312 303
44 42 65 63 45 35 16 5 11 2 353 16 23 12 10 8 2 5 8 8 9 8 7 8 8 6 1 2 9 9 8 7 1 356 355 358 358 352 351 349 340 332
81 75 62 37 14 10 9 5 4 360 9 28 26 16 14 11 7 11 12 12 13 10 8 13 17 11 5 8 13 13 13 13 10 8 5 4 7 3 360 358 355 352
61 42 23 2 347 5 14 8 8 22 35 35 26 18 16 16 15 18 21 21 19 15 16 21 21 16 10 11 14 16 18 17 14 17 17 14 14 11 7 2 360 359
43 22 17 14 41 49 23 7 35 49 49 39 28 23 25 26 27 30 32 30 27 26 27 27 25 21 19 20 22 23 26 24 20 21 22 20 17 12 9 8 6 4
64 37 19 21 71 79 64 64 65 60 52 41 33 33 38 38 37 38 38 36 34 32 31 31 30 28 28 30 32 32 32 29 26 25 23 22 19 13 9 8 7 4
75 80 97 102 104 100 89 78 71 63 54 46 44 46 49 49 45 41 40 41 39 35 33 32 33 34 36 38 37 36 33 29 28 28 27 25 22 17 13 11 8 5
103 108 112 106 96 89 85 80 75 69 61 57 56 55 55 55 51 45 44 44 41 38 36 34 36 39 42 41 37 34 33 29 28 27 26 26 24 21 20 20 16 10
111 110 107 101 93 87 83 80 75 71 68 66 65 61 58 57 56 51 49 48 46 43 39 37 38 40 40 39 35 33 33 32 30 29 28 29 29 26 24 25 23 16
109 106 102 97 93 88 82 78 75 75 75 72 68 65 61 59 59 57 54 52 49 47 44 42 42 42 40 39 38 38 40 40 39 41 40 38 36 34 29 26 24 21
105 102 99 95 92 87 82 80 80 80 81 76 70 67 64 61 61 60 58 56 52 50 49 47 46 46 45 44 43 43 45 44 45 46 47 45 42 39 36 30 23 21
102 101 98 94 91 88 85 84 82 80 80 78 73 71 68 66 65 63 62 61 57 55 52 48 47 46 45 46 45 45 47 47 46 46 47 47 43 40 40 37 31 27
102 101 98 95 93 91 88 86 83 81 81 79 77 75 73 71 69 66 65 63 61 59 56 52 51 49 48 48 48 48 49 49 47 47 46 44 42 39 39 39 38 35
103 100 98 97 95 93 90 88 85 83 82 79 78 76 74 72 70 68 65 63 62 61 60 58 57 55 54 55 55 55 54 52 52 52 50 46 44 39 36 37 38 37
103 102 100 98 96 94 92 90 88 85 83 80 78 75 74 72 71 68 65 63 61 61 60 58 56 56 57 59 60 59 58 56 55 54 53 49 47 43 39 38 38 36
104 103 100 98 96 95 93 91 89 87 83 81 78 75 73 72 70 68 65 63 61 60 59 58 56 56 58 59 60 60 60 58 56 54 52 50 47 45 42 41 39 37
102 102 99 98 96 96 95 93 90 87 83 81 78 76 75 73 70 69 66 63 62 60 60 59 58 58 59 60 60 61 61 60 57 55 53 50 48 46 44 42 41 39
103 102 100 98 97 97 95 92 89 86 84 82 81 79 77 74 71 69 68 65 64 62 61 60 59 60 61 63 63 62 62 61 60 57 55 52 50 48 46 44 43 41
105 104 102 100 99 97 95 92 90 87 85 83 81 79 77 75 73 71 69 67 65 64 62 60 58 59 61 63 64 63 62 62 60 58 57 54 52 50 49 47 45 44
108 107 104 102 100 98 95 92 90 88 86 84 84 82 79 77 75 73 71 69 67 65 64 61 58 57 59 61 62 62 62 61 60 59 57 55 53 52 50 49 47 46
112 110 107 104 103 99 96 94 92 91 88 87 86 84 80 78 76 74 72 70 68 66 64 62 59 57 57 58 59 60 61 60 59 59 57 55 53 52 52 51 49 47
116 113 109 107 104 101 99 98 96 93 91 89 88 85 82 80 78 76 73 70 68 66 64 62 60 57 55 55 56 57 59 59 59 58 56 55 53 52 52 51 50 49
117 115 112 109 106 104 103 101 98 96 94 92 90 87 85 82 79 77 74 70 68 66 63 61 59 56 54 53 52 52 54 56 57 57 55 53 52 51 52 51 50 49
118 116 114 112 110 107 105 104 101 100 98 95 93 90 87 83 80 77 74 71 68 65 63 61 59 57 56 53 51 50 50 52 55 55 53 52 51 51 51 50 50 48